Wind_Speed
26 32 40 45 58 57 58 55 57 57 58 58 60 62 59 54 58 59 56 58 59 57 53 47 48 49 44 37 36 35 36 40 39 41 47 51 52 52 54 57 57 51 47 47
22 28 40 42 52 52 53 52 53 53 54 54 61 63 58 54 55 58 56 57 60 61 53 45 44 45 42 36 37 38 37 40 42 44 46 55 61 61 57 63 65 59 56 55
17 17 33 36 44 49 49 49 47 47 50 53 57 62 57 56 54 55 56 56 58 61 58 53 46 45 46 44 45 43 43 41 42 43 47 54 56 60 62 50 71 73 56 49
8 20 18 22 37 43 44 44 42 44 48 51 56 57 56 54 53 56 55 55 54 55 57 57 55 54 54 54 53 50 46 44 46 54 59 52 49 39 46 46 61 50 63 62
20 15 12 27 28 38 39 36 37 40 42 49 50 53 55 51 53 55 55 55 53 52 51 49 49 48 46 45 49 50 50 49 51 53 51 45 48 53 47 40 44 50 45 40
15 6 11 27 27 34 35 34 34 36 39 44 46 48 52 49 49 53 54 54 54 52 50 49 46 43 43 45 46 45 46 45 44 41 41 43 46 50 47 45 41 25 39 45
8 8 15 24 28 27 34 35 33 34 36 39 44 45 48 44 45 49 49 50 51 49 47 47 44 44 44 43 36 28 31 37 41 39 40 40 37 37 47 46 29 39 38 32
1 7 11 21 23 26 32 31 30 32 36 38 40 43 44 41 42 47 47 48 45 44 42 41 41 40 37 31 29 31 31 33 35 39 39 41 37 29 39 32 39 35 28 29
1 5 11 18 18 23 31 30 29 29 32 32 38 43 41 41 41 43 43 42 39 36 35 34 33 34 31 30 34 34 36 31 32 35 34 26 26 31 31 30 22 30 30 18
4 2 12 16 20 22 26 27 28 28 30 30 33 39 40 42 43 42 41 39 38 38 36 34 33 30 29 34 38 37 35 32 30 26 26 22 27 29 34 35 30 39 57 26
2 3 10 16 20 22 25 27 27 27 27 29 31 34 37 42 45 45 44 42 40 38 35 34 35 36 38 41 42 42 37 30 29 21 21 22 27 28 23 24 23 36 27 10
3 2 7 11 18 23 23 25 27 28 26 28 31 33 34 38 41 45 43 42 40 38 39 40 37 40 41 43 43 39 38 33 29 31 32 25 22 25 25 26 31 40 33 17
2 4 4 11 16 21 24 27 27 28 29 28 30 33 34 34 36 39 40 40 42 44 47 45 45 46 45 43 41 35 27 23 24 29 34 23 25 26 28 26 38 33 18 25
4 1 4 10 11 15 19 26 29 31 29 29 29 29 33 34 36 36 38 40 41 43 46 46 46 46 44 40 36 34 27 27 30 32 29 32 32 32 32 34 27 23 27 28
5 3 4 9 15 17 19 18 22 27 30 31 32 32 33 34 36 38 40 41 44 47 49 50 51 47 43 35 27 30 31 30 32 34 34 32 32 28 16 16 23 26 25 24
5 5 3 12 8 20 17 21 27 27 31 29 32 35 35 37 39 40 46 48 50 49 49 38 35 33 32 29 31 33 36 38 38 47 33 32 27 27 15 16 21 21 17 22
10 7 2 7 7 19 23 20 14 18 19 21 23 25 25 22 29 27 25 24 28 35 31 29 27 28 30 34 33 36 36 33 38 36 31 30 31 15 17 14 17 23 23 23
9 10 5 11 7 7 20 22 20 19 20 23 22 16 25 16 15 19 22 24 29 35 30 30 24 20 20 24 33 27 28 17 18 25 7 7 8 13 19 16 17 24 27 29
8 9 10 12 13 9 11 18 23 17 11 13 12 9 12 13 15 18 23 30 35 34 31 29 24 22 24 25 27 31 25 33 26 23 18 18 15 20 20 19 24 27 29 29
10 8 5 15 14 14 16 16 13 13 9 5 6 11 10 13 17 17 23 35 42 34 25 20 20 22 24 29 30 28 28 27 25 22 18 19 21 22 21 21 26 25 24 28
6 3 12 8 12 15 15 14 11 14 14 13 9 10 9 7 17 20 28 27 35 30 27 23 22 18 18 25 28 26 26 27 22 21 22 22 26 23 21 22 24 22 26 27
3 4 9 12 9 14 18 17 12 11 14 13 10 2 11 21 16 9 13 27 27 20 27 20 19 16 15 16 18 21 22 19 17 19 17 25 27 19 19 20 22 26 27 27
9 8 3 8 10 12 17 14 13 12 13 11 12 6 11 13 18 16 15 17 16 14 12 12 11 12 14 11 12 17 11 17 27 17 14 10 15 19 18 17 20 22 24 25
12 14 12 7 10 14 19 17 14 14 11 15 13 12 13 9 9 11 12 13 13 14 13 14 16 13 12 10 9 8 8 11 29 19 18 15 16 18 19 20 21 23 25 25
16 15 11 11 10 14 9 8 18 19 18 15 14 11 19 12 9 10 17 16 13 13 13 12 11 10 9 8 6 6 5 7 13 17 24 17 16 19 21 21 22 23 23 24
19 14 11 12 5 9 7 11 12 22 21 19 20 19 10 8 13 12 13 13 11 11 11 11 10 10 10 11 12 11 11 12 13 15 16 16 18 18 20 21 21 21 23 26
Wind_Direction
211 220 205 212 205 206 210 214 217 214 213 212 212 212 212 214 213 214 218 223 219 222 218 218 226 234 236 230 227 236 244 248 253 255 257 253 252 250 254 249 249 248 236 240
196 207 204 205 203 204 209 210 215 212 213 211 212 213 213 210 212 216 216 222 224 223 224 217 222 229 228 228 237 243 244 250 269 261 261 252 251 251 251 256 259 252 250 246
155 207 205 201 202 200 205 209 213 211 211 208 210 214 213 212 211 215 217 220 224 226 228 227 225 228 234 244 251 255 257 263 262 260 264 259 259 269 260 274 261 259 249 249
170 164 195 196 202 199 202 207 209 211 210 208 210 214 215 215 211 216 218 222 225 229 234 237 238 238 243 248 253 256 263 261 260 259 279 296 295 273 303 298 288 283 251 250
178 123 181 183 200 199 200 205 205 208 207 208 208 213 216 214 214 216 220 225 228 230 235 240 244 246 246 249 253 257 261 265 269 274 281 289 293 288 294 296 298 299 241 251
189 185 138 192 196 196 199 199 199 200 201 208 208 211 214 216 217 219 222 225 229 233 237 242 247 253 258 260 262 266 273 277 279 279 280 285 283 280 294 291 288 261 256 232
181 184 177 184 199 196 195 198 198 196 199 206 208 208 211 211 210 216 220 224 226 231 235 239 246 251 254 259 268 269 273 275 277 281 281 281 288 279 288 301 265 243 240 225
56 188 197 187 199 199 196 194 197 202 204 204 208 206 207 206 206 211 215 220 221 226 232 234 238 245 250 256 263 273 274 281 282 279 285 285 287 292 290 297 255 216 229 237
103 211 186 182 191 199 196 194 194 197 205 208 210 206 204 203 204 208 210 217 223 226 226 229 234 244 257 261 267 276 285 292 282 284 291 297 301 289 288 277 257 237 245 249
98 213 191 192 193 192 195 192 196 200 205 203 207 210 203 203 203 204 207 212 222 230 238 240 239 245 256 267 273 278 282 290 287 276 286 290 288 284 283 278 271 265 280 273
21 163 200 198 195 199 191 193 199 202 206 203 204 206 205 204 206 208 211 216 225 235 237 243 251 256 259 264 270 275 280 284 284 274 280 273 279 267 258 272 269 261 263 293
330 295 197 212 200 196 192 195 195 201 203 203 201 206 206 205 208 212 214 217 218 227 236 242 246 253 258 263 268 273 280 290 284 270 263 259 224 239 251 258 266 255 265 295
32 335 256 214 215 201 195 197 199 199 202 203 202 206 208 207 208 212 216 218 220 225 234 242 250 255 259 261 265 274 279 268 253 249 246 231 219 230 244 245 248 263 294 276
179 95 319 239 210 220 213 207 203 201 202 203 198 200 209 208 207 210 215 220 225 232 238 244 248 251 252 256 262 266 244 250 237 237 226 221 230 245 250 247 262 269 277 275
210 211 288 237 217 218 217 212 221 216 216 213 215 210 208 209 212 216 219 225 228 230 233 235 238 242 247 255 241 238 238 231 232 225 228 239 249 241 245 256 264 263 268 276
189 228 183 188 223 227 228 208 218 219 221 228 227 217 217 220 220 225 227 228 231 234 237 234 234 233 229 219 221 227 233 236 235 234 225 241 238 227 236 253 272 260 276 277
235 254 283 197 170 203 206 195 191 205 215 217 218 214 215 207 217 218 212 217 216 218 207 216 221 234 245 241 230 244 255 231 229 235 235 244 233 231 251 252 276 269 279 284
240 241 219 207 181 213 191 197 201 195 191 190 189 183 192 189 194 196 195 196 203 205 211 212 218 224 233 235 237 243 227 195 214 223 258 245 278 264 267 275 270 262 279 289
226 202 210 212 210 213 203 200 209 226 200 170 160 185 211 210 207 202 203 199 204 207 214 214 210 224 238 251 260 266 261 286 287 289 277 288 293 267 274 281 274 278 285 293
228 216 285 209 203 198 201 200 200 208 200 216 242 249 230 237 242 250 258 232 206 206 197 203 222 232 238 245 249 262 278 289 292 287 287 278 275 258 268 280 275 279 286 288
206 105 188 211 204 193 194 193 202 205 188 198 205 246 256 306 259 248 246 230 202 196 197 214 233 228 249 252 257 264 270 275 276 277 273 268 268 270 274 266 266 283 285 284
175 176 217 194 200 193 194 200 199 199 180 189 186 243 252 240 161 175 192 155 168 190 214 207 214 221 232 236 246 257 261 264 270 278 284 272 281 280 288 278 267 281 285 286
203 203 145 199 207 186 196 192 196 193 184 172 186 159 235 134 134 148 144 137 149 156 168 173 190 208 218 213 231 231 250 243 247 274 263 283 285 283 292 286 281 282 285 288
222 207 188 203 190 191 198 205 195 189 176 192 207 197 199 162 150 159 169 166 164 172 181 181 189 203 210 232 253 268 296 242 228 240 257 255 276 278 280 283 285 286 291 297
220 225 214 234 169 185 182 194 183 189 194 196 199 202 177 181 181 205 209 186 173 180 185 190 200 204 222 236 252 273 260 224 237 251 263 266 275 279 280 286 292 295 300 303
217 216 222 219 192 199 202 167 166 184 191 191 202 196 170 195 204 187 169 165 179 191 197 204 213 227 243 257 263 267 271 270 261 261 270 279 279 290 299 298 294 296 301 306
Height
5582 5589 5603 5613 5624 5633 5644 5655 5670 5686 5699 5713 5724 5729 5742 5751 5760 5767 5778 5786 5797 5805 5818 5826 5831 5835 5838 5841 5845 5849 5853 5854 5857 5861 5864 5865 5865 5862 5860 5860 5856 5856 5853 5851
5578 5587 5597 5604 5615 5627 5637 5651 5664 5679 5689 5705 5713 5721 5732 5742 5753 5762 5772 5780 5789 5798 5808 5820 5826 5831 5834 5837 5839 5843 5846 5848 5850 5854 5853 5853 5853 5852 5852 5850 5848 5846 5845 5844
5580 5589 5594 5602 5612 5623 5634 5647 5660 5673 5681 5694 5704 5713 5725 5737 5747 5755 5766 5774 5784 5792 5800 5811 5821 5826 5830 5832 5833 5837 5842 5843 5844 5846 5847 5848 5850 5848 5846 5842 5839 5841 5840 5840
5585 5589 5595 5603 5613 5621 5632 5643 5655 5666 5676 5688 5698 5710 5720 5732 5742 5749 5760 5770 5780 5788 5795 5802 5811 5820 5823 5824 5825 5830 5834 5837 5838 5839 5837 5837 5840 5839 5846 5840 5829 5825 5830 5832
5590 5594 5599 5605 5614 5622 5633 5643 5652 5661 5671 5682 5694 5705 5715 5726 5735 5747 5757 5766 5774 5782 5789 5796 5802 5808 5815 5819 5821 5823 5827 5832 5834 5832 5831 5831 5830 5835 5837 5830 5826 5823 5822 5822
5594 5594 5597 5607 5615 5622 5631 5639 5649 5658 5668 5679 5691 5701 5712 5726 5741 5748 5753 5760 5769 5777 5783 5788 5794 5799 5804 5809 5813 5817 5818 5820 5820 5821 5822 5824 5826 5825 5826 5824 5817 5815 5815 5815
5600 5601 5604 5609 5616 5622 5629 5637 5648 5658 5667 5677 5688 5700 5713 5724 5734 5740 5748 5755 5763 5770 5777 5782 5788 5792 5796 5799 5803 5808 5811 5811 5815 5816 5820 5822 5822 5817 5819 5810 5807 5807 5807 5808
5605 5607 5608 5612 5619 5626 5632 5640 5649 5659 5667 5675 5685 5697 5708 5719 5728 5735 5742 5748 5756 5763 5771 5777 5781 5786 5789 5794 5798 5801 5805 5809 5810 5811 5812 5813 5811 5808 5806 5805 5804 5802 5803 5803
5608 5609 5611 5614 5620 5628 5633 5642 5650 5658 5665 5676 5685 5696 5706 5713 5723 5731 5738 5745 5751 5759 5766 5771 5775 5779 5784 5787 5792 5795 5797 5799 5800 5800 5799 5801 5802 5801 5799 5802 5801 5800 5799 5798
5611 5613 5614 5617 5622 5628 5635 5643 5650 5656 5665 5674 5683 5692 5701 5708 5717 5726 5735 5742 5747 5754 5761 5765 5769 5775 5779 5781 5784 5788 5791 5792 5791 5791 5790 5792 5793 5794 5793 5793 5794 5797 5797 5798
5615 5616 5619 5620 5625 5630 5636 5641 5649 5657 5664 5672 5680 5688 5696 5704 5712 5722 5729 5737 5744 5749 5753 5757 5761 5767 5771 5775 5777 5778 5782 5785 5785 5785 5782 5784 5786 5785 5785 5784 5786 5788 5785 5785
5616 5618 5619 5623 5626 5630 5636 5641 5647 5654 5663 5670 5677 5686 5691 5700 5708 5716 5725 5732 5737 5741 5744 5748 5752 5757 5761 5764 5767 5771 5773 5775 5777 5776 5780 5780 5782 5781 5781 5781 5780 5778 5778 5780
5618 5618 5621 5624 5629 5631 5636 5641 5646 5653 5659 5666 5674 5683 5689 5696 5704 5713 5720 5725 5731 5736 5739 5742 5746 5751 5754 5756 5762 5765 5766 5769 5771 5772 5773 5771 5771 5773 5772 5773 5771 5769 5770 5774
5619 5620 5620 5624 5628 5632 5636 5640 5645 5650 5657 5664 5671 5677 5684 5691 5699 5707 5713 5719 5724 5729 5734 5737 5740 5744 5748 5751 5755 5758 5760 5762 5762 5762 5763 5762 5764 5766 5766 5764 5764 5767 5769 5768
5619 5621 5621 5620 5625 5629 5634 5639 5645 5650 5655 5661 5666 5673 5679 5687 5694 5699 5705 5711 5715 5719 5724 5728 5731 5736 5741 5746 5748 5748 5751 5754 5754 5755 5754 5755 5755 5758 5759 5761 5763 5763 5763 5762
5618 5620 5620 5622 5625 5628 5632 5637 5642 5647 5653 5658 5663 5670 5676 5680 5685 5690 5695 5700 5704 5710 5716 5722 5725 5730 5734 5737 5739 5742 5743 5746 5747 5737 5741 5745 5744 5747 5749 5753 5755 5756 5755 5754
5618 5619 5621 5623 5624 5627 5631 5637 5642 5647 5651 5656 5661 5665 5672 5677 5680 5684 5689 5694 5698 5704 5709 5715 5721 5725 5727 5731 5735 5737 5735 5735 5731 5730 5732 5735 5736 5739 5739 5741 5743 5745 5746 5745
5616 5619 5621 5622 5625 5627 5632 5637 5643 5645 5650 5656 5661 5663 5670 5674 5677 5681 5685 5690 5696 5699 5704 5710 5715 5718 5721 5723 5726 5725 5723 5708 5718 5724 5725 5728 5729 5732 5733 5734 5735 5737 5735 5736
5615 5619 5621 5622 5624 5628 5630 5636 5642 5647 5651 5654 5658 5663 5669 5672 5676 5680 5682 5687 5690 5695 5699 5702 5707 5712 5714 5714 5716 5715 5715 5715 5717 5719 5722 5724 5726 5728 5729 5727 5728 5727 5727 5726
5613 5616 5617 5618 5623 5627 5629 5632 5637 5642 5648 5653 5657 5661 5665 5668 5671 5676 5678 5680 5687 5690 5694 5699 5704 5707 5709 5710 5710 5709 5709 5711 5712 5716 5717 5719 5720 5721 5720 5719 5720 5720 5719 5719
5614 5616 5618 5620 5621 5626 5630 5634 5638 5642 5652 5652 5658 5659 5660 5661 5664 5669 5670 5673 5680 5687 5692 5696 5700 5702 5704 5704 5704 5706 5707 5707 5708 5710 5712 5715 5715 5716 5715 5715 5714 5714 5714 5714
5615 5617 5619 5621 5623 5627 5630 5634 5638 5643 5647 5652 5654 5658 5660 5661 5662 5665 5665 5660 5674 5684 5689 5692 5695 5699 5702 5703 5704 5704 5703 5705 5706 5708 5707 5709 5709 5708 5708 5708 5708 5708 5708 5708
5615 5617 5619 5622 5623 5627 5630 5633 5638 5643 5647 5651 5653 5657 5660 5662 5664 5668 5670 5671 5677 5682 5686 5689 5693 5696 5699 5701 5703 5703 5702 5701 5702 5705 5706 5705 5705 5704 5703 5703 5704 5704 5704 5703
5613 5613 5617 5620 5622 5625 5628 5631 5636 5642 5646 5649 5653 5655 5659 5662 5665 5668 5669 5674 5678 5680 5684 5687 5691 5694 5696 5698 5699 5698 5696 5693 5699 5701 5701 5701 5701 5701 5701 5701 5701 5700 5699 5696
5612 5613 5615 5615 5619 5623 5626 5629 5634 5638 5643 5647 5651 5654 5658 5662 5664 5667 5671 5672 5674 5678 5682 5684 5688 5690 5693 5694 5695 5695 5695 5695 5697 5697 5698 5698 5697 5698 5698 5698 5696 5695 5693 5690
5609 5613 5616 5618 5621 5623 5626 5627 5631 5635 5640 5645 5648 5653 5656 5659 5662 5664 5666 5669 5673 5677 5680 5684 5686 5688 5690 5690 5692 5692 5692 5692 5693 5693 5693 5692 5693 5693 5692 5691 5690 5688 5686 5683